Overview Statistics Trail Chart Weather Telemetry Raw packets
 

This is the latest recevied weather packets stored in our database for station/object I0UVN-10. If no packets are shown the sender has not sent any weather packets the latest 10 day(s).

<< 22 23 24 25 26 27 28 >>
Time Temp. Humidity Pressure Rain* Wind** Luminosity Snow
1788004814 30° C 44% 1020.9 hPa - - - -
1788003614 30° C 44% 1021 hPa - - - -
1788002413 30.56° C 50% 1021 hPa - - - -
1788001207 30° C 51% 1021.2 hPa - - - -
1788000041 30° C 56% 1021.3 hPa - - - -
1788000007 30° C 56% 1021.3 hPa - - - -
1787998805 30° C 58% 1021.4 hPa - - - -
1787997651 30° C 58% 1021.6 hPa - - - -
1787996448 30° C 59% 1021.8 hPa - - - -
1787995248 29.44° C 61% 1021.9 hPa - - - -
1787994047 30° C 61% 1022 hPa - - - -
1787992847 30° C 61% 1022.1 hPa - - - -
1787991647 29.44° C 59% 1022.1 hPa - - - -
1787990447 28.89° C 64% 1022.4 hPa - - - -
1787989247 28.89° C 64% 1022.1 hPa - - - -
1787988097 29.44° C 54% 1021.8 hPa - - - -
1787988047 29.44° C 54% 1021.8 hPa - - - -
1787986901 28.89° C 58% 1021.4 hPa - - - -
1787986847 28.89° C 58% 1021.4 hPa - - - -
1787985646 28.89° C 57% 1021 hPa - - - -
1787984446 28.89° C 56% 1021.5 hPa - - - -
1787983278 28.33° C 55% 1020.9 hPa - - - -
1787983246 28.33° C 55% 1020.9 hPa - - - -
1787982046 27.22° C 56% 1021.3 hPa - - - -
1787980842 28.33° C 51% 1021.5 hPa - - - -

* Rain since midnight (hover to see other rain measurements)
** Current wind speed in m/s (hover to see current wind gust speed)